Location: Newark
(45.5000°N, 11.4167°E)
Time: 22:57:32
(UTC+00:00)

A-11 Canister half - Visible Passes

Search period start: 21 August 2019 00:00
Search period end: 31 August 2019 00:00
Orbit: 1526 x 1683 km, 47.3° (Epoch: 21 August)

Date Brightness Start Highest point End Pass type
(mag) Time Alt. Az. Time Alt. Az. Time Alt. Az.
21 Aug 10.9 19:24:17 10° W 19:30:49 20° SW 19:37:17 10° SSW visible
22 Aug 10.9 19:02:26 10° W 19:09:17 21° SW 19:16:04 10° S visible
23 Aug 10.9 18:40:35 10° W 18:47:43 22° SW 18:54:48 10° S visible
